Regional Weather Roundup
Issued by NWS Sterling, VA

Home | Current Version | Previous Version | Graphics & Text | Print | Product List | Glossary On
Versions: 1 2 3 4 5 6 7 8 9 10 11 12 13 14 15 16 17 18 19 20 21 22 23 24 25 26 27 28 29 30 31 32 33 34 35 36 37 38 39 40 41 42 43 44 45 46 47 48 49 50
800
ASUS41 KLWX 081310
RWRLWX

REGIONAL WEATHER ROUNDUP
NATIONAL WEATHER SERVICE BALTIMORE MD/WASHINGTON DC
800 AM EST MON FEB 08 2016

Note: "FAIR" indicates few or no clouds below 12,000 feet
with no significant weather and/or obstructions to visibility.
 TC=TEMPERATURE CELSIUS

 * =Non NWS site. Station does not report precipitation (e.g. rain,
    snow, etc.), thunder, or fog.

DCZ001-MDZ009-015-VAZ040>042-051-053>054-081400-
WASHINGTON METRO

CITY           SKY/WX    TMP DP  RH WIND       PRES   REMARKS
WASHINGTON NAT MOCLDY    36  22  56 N8        29.83R
DULLES         FAIR      27  22  81 CALM      29.81S
ANDREWS AFB    CLEAR     31  23  71 N7        29.80R
FT BELVOIR     FAIR      34  22  60 NW3       29.82R
QUANTICO       FAIR      37  22  54 N6        29.83S
COLLEGE PARK*  FAIR      32  23  69 N3        29.81S
LEESBURG*      FAIR      32  28  86 CALM      29.82S
MANASSAS*      CLEAR     39  25  56 CALM      29.82S
GAITHERSBURG*  CLEAR     30  18  59 CALM      29.84S

$$

MDZ006>007-011-014-081400-
BALTIMORE METRO

CITY           SKY/WX    TMP DP  RH WIND       PRES   REMARKS
BWI AIRPORT    PTCLDY    34  20  56 N6        29.81R
MD SCIENCE CTR   N/A     37  20  50 MISG      29.82R
MARTIN STATE   MOCLDY    34  27  75 W9        29.83R WCI  26
ANNAPOLIS      CLOUDY    37  26  64 NW8       29.81R
FORT MEADE*    PTCLDY    32  21  64 NW3       29.83R

$$

MDZ012-015-019>023-081400-
MARYLAND EASTERN SHORE

CITY           SKY/WX    TMP DP  RH WIND       PRES   REMARKS
OCEAN CITY     CLOUDY    39  32  76 N10       29.74R
SALISBURY      CLOUDY    38  29  70 N9        29.75R
BAY BRIDGE AP*   N/A     37  27  65 N10       29.81R
CAMBRIDGE*     PTCLDY    36  27  69 N8        29.77R
EASTON*        PTCLDY    36  27  69 N5        29.82R

$$

MDZ017>025-081400-
SOUTHERN MARYLAND

CITY           SKY/WX    TMP DP  RH WIND       PRES   REMARKS
PATUXENT RIVER MOCLDY    37  24  59 NW12      29.80R
ST INIGOES     PTCLDY    37  23  56 NW5       29.79R
LEONARDTOWN*   MOCLDY    36  23  60 NW5       29.81R

$$

MDZ003>005-081400-
NORTH CENTRAL MARYLAND

CITY           SKY/WX    TMP DP  RH WIND       PRES   REMARKS
FREDERICK*     CLEAR     23  23 100 CALM      29.85S
HAGERSTOWN APT PTCLDY    26  21  81 CALM      29.79F
WESTMINSTER*   PTCLDY    28  25  86 CALM      29.79S

$$

MDZ501>502-081400-
WESTERN MARYLAND

CITY           SKY/WX    TMP DP  RH WIND       PRES   REMARKS
OAKLAND*       CLOUDY    30  21  69 SE8       29.66F WCI  23
CUMBERLAND*    CLOUDY    27  27 100 CALM      29.82S

$$

VAZ025>031-081400-
SHENANDOAH VALLEY

CITY           SKY/WX    TMP DP  RH WIND       PRES   REMARKS
WINCHESTER*    FAIR      28  25  86 CALM      29.79F
FRONT ROYAL*   FAIR      27  25  93 CALM      29.79S
LURAY*         FAIR      25  25 100 CALM      29.78F FOG
NEW MARKET*    FAIR      24  23  94 CALM      29.79R
STAUNTON*      FAIR      27  25  89 CALM      29.79S
WAYNESBORO*    FAIR      25  21  87 CALM      29.76S

$$

WVZ021-048>050-054>055-081400-
EASTERN WEST VIRGINIA PANHANDLE

CITY           SKY/WX    TMP DP  RH WIND       PRES   REMARKS
MARTINSBURG    FAIR      22  19  89 W3        29.80F FOG
PETERSBURG*    FAIR      24  22  93 CALM      29.78S

$$

VAZ036>039-050-081400-
CENTRAL FOOTHILLS

CITY           SKY/WX    TMP DP  RH WIND       PRES   REMARKS
CHARLOTTESVILL FAIR      29  23  78 CALM      29.80R
CULPEPER*      FAIR      25  22  89 CALM      29.81F
ORANGE*        FAIR      28  27  93 CALM      29.81F
GORDONSVILLE*  FAIR      28  25  88 CALM      29.80S
WARRENTON*     FAIR      26  25  94 CALM      29.80F

$$

VAZ055>057-081400-
NORTH AND CENTRAL PIEDMONT

CITY           SKY/WX    TMP DP  RH WIND       PRES   REMARKS
FREDERICKSBRG* FAIR      30  24  80 CALM      29.81S
STAFFORD*      FAIR      33  22  62 N7        29.85F

$$

NCZ024-NYZ072-PAZ021-071-VAZ022-071-081400-
OTHER REGIONAL OBSERVATIONS

CITY           SKY/WX    TMP DP  RH WIND       PRES   REMARKS
NEW YORK CITY  CLOUDY    38  25  59 NE14      29.80R
PHILADELPHIA   CLOUDY    39  26  59 N10G25    29.78R
PITTSBURGH     MOCLDY    31  23  72 CALM      29.66S
ROANOKE        FAIR      27  23  85 CALM      29.80S
RICHMOND       FAIR      34  22  61 N7        29.81R
RALEIGH        PTCLDY    30  24  78 CALM      29.83S

$$

ANZ530>537-081400-
MARINE OBSERVATIONS

STATION/POSITION TIME  TEMP    WIND        PRES
                       AIR SEA DIR/SP/G
                 (UTC) (F)     (DEG/KT/KT) (MB)
THOMAS PT LIGHT  1200   38 38  360/ 11/ 12 1009.0R
BALT KEY BRIDGE  1200   37     330/  8/ 10 1008.8R
COVE POINT       1200   38      20/ 12/ 17 1008.8R
LEWISETTA        1200   38 41  350/  9/ 12 1007.9R
SOLOMONS ISLAND  1200   36 41  310/  5/  8   N/A

$$





USA.gov is the U.S. government's official web portal to all federal, state and local government web resources and services.